Location: Parsów
(53.2294°N, 14.7234°E)
Time: 13:46:32
(UTC+00:00)

Daily predictions for brighter satellites

Satellite Brightness Start Highest point End
(mag) Time Altitude Azimuth Time Altitude Azimuth Time Altitude Azimuth
Cosmos 1726 Rocket 3.8 20:19:42 10° N 20:23:58 54° ENE 20:28:13 10° SSE
Nadezhda 1 Rocket 4.1 20:20:57 10° S 20:26:55 61° E 20:32:54 10° NNE
ATLAS 2AS CENTAUR R/B 4.4 20:22:12 10° WNW 20:27:37 24° WSW 20:32:48 10° SSW
USA 234 3.6 20:21:51 10° E 20:28:23 72° NNE 20:34:55 10° WNW
Meteor 2-1 Rocket 4.2 20:23:31 10° NNW 20:29:03 83° ENE 20:34:37 10° SSE
Cosmos 1892 4.3 20:27:38 10° SE 20:30:26 20° E 20:33:15 10° NE
SL-16 R/B 3.5 20:27:41 10° NNW 20:32:50 34° NE 20:37:59 10° ESE
Cosmos 1980 Rocket 2.3 20:27:33 10° NNW 20:33:18 82° ENE 20:38:59 10° SE
Cosmos 1697 Rocket 3.1 20:27:57 10° NW 20:33:30 60° WSW 20:38:59 10° SSE
Cosmos 2344 4.3 20:27:30 10° NW 20:36:04 79° SW 20:47:58 10° SE
Cosmos 2369 3.8 20:30:58 10° NNW 20:36:45 88° WSW 20:42:30 10° SSE
Cosmos 1331 Rocket 4.0 20:34:43 10° SSW 20:39:59 71° ESE 20:45:17 10° NNE
Cosmos 2154 Rocket 4.2 20:36:45 10° NNW 20:42:58 75° W 20:49:09 10° S
Spot 2 Rocket 4.1 20:39:55 10° S 20:44:56 57° W 20:50:00 10° NNW
COSMOS 2406 3.5 20:39:49 10° S 20:45:22 52° ESE 20:50:56 10° NE
X-37B 2.7 20:45:10 10° SW 20:46:01 11° SSW 20:46:53 10° S
CZ-2C R/B 3.7 20:41:41 10° NNE 20:46:16 69° ESE 20:50:44 10° S
ATLAS 5 CENTAUR R/B 3.1 20:48:00 11° SE 20:49:41 14° ESE 20:51:49 10° E
SPOT 5 3.6 20:50:49 10° S 20:54:57 42° W 20:59:05 10° NNW
Cosmos 1869 4.3 20:52:51 10° N 20:56:26 34° ENE 20:59:42 12° SE
Cosmos 2084 Rocket 4.2 20:53:03 10° WNW 20:56:38 36° SW 21:00:03 12° SSE
RESURS DK-1 4.5 20:53:52 10° WNW 20:56:52 19° WSW 20:59:50 10° SSW
Cosmos 1703 4.3 20:54:13 10° SSW 20:57:55 45° WNW 21:01:39 10° N
CZ-4B R/B 4.1 20:58:08 10° NNW 20:59:58 16° WNW 21:01:48 10° WSW
Cosmos 1452 Rocket 4.3 20:56:06 10° SW 21:01:16 55° WNW 21:06:27 10° NNE
Cosmos 1833 Rocket 2.8 20:55:51 10° SSW 21:01:28 84° WNW 21:07:10 10° NNE
Terra 2.4 20:56:55 10° S 21:01:36 55° W 21:06:18 10° NNW
ASTEX 1 3.8 20:56:55 10° NNE 21:01:49 51° E 21:06:20 12° SSE
SL-8 Rocket 4.1 20:56:25 10° N 21:02:39 69° ENE 21:08:23 12° SSE
Helios 1A Rocket 4.3 21:02:03 10° SSW 21:05:47 34° W 21:09:34 10° NNW
ADEOS Rocket 4.4 20:59:28 10° ESE 21:06:16 41° ENE 21:13:23 10° N
ALOS 2 4.3 21:03:00 10° ESE 21:06:29 24° ENE 21:09:59 10° N
FALCON 9 DEB 3.2 21:03:48 10° W 21:06:59 51° SSW 21:09:45 13° SE
Cosmos 1110 Rocket 4.4 21:01:54 10° SW 21:07:10 71° WNW 21:12:31 10° NNE
ERS-1 Rocket 4.0 21:03:30 10° SSW 21:08:16 42° W 21:13:03 10° NNW
Cosmos 2322 Rocket 3.2 21:03:10 10° NNW 21:08:32 41° NE 21:13:54 10° ESE
Cosmos 1892 Rocket 3.5 21:04:30 10° S 21:08:52 75° E 21:13:14 10° NNE
Resurs 01 Rocket 4.5 21:08:22 10° W 21:09:29 11° W 21:10:35 10° WNW
Cosmos 1302 Rocket 4.0 21:05:16 10° SSW 21:10:24 65° ESE 21:15:34 10° NNE
Cosmos 2058 Rocket 3.1 21:06:55 10° NNW 21:11:22 89° WSW 21:15:19 13° S
Cosmos 1825 3.0 21:15:03 15° SSE 21:17:39 35° E 21:21:06 10° NNE
Cosmos 1408 2.4 21:16:14 13° S 21:19:17 75° E 21:22:45 10° NNE
Cosmos 2278 3.8 21:13:44 10° NNW 21:19:29 80° WSW 21:24:23 14° SSE
Cosmos 1626 Rocket 4.3 21:17:39 15° SSE 21:20:49 37° E 21:24:51 10° NNE
Meteor 1-11 4.2 21:15:55 10° S 21:21:30 77° E 21:27:06 10° NNE
Cosmos 2366 rocket 4.1 21:15:22 10° N 21:21:44 78° ENE 21:27:20 14° SSE
Cosmos 968 Rocket 4.1 21:17:00 10° NW 21:22:02 50° WSW 21:26:36 12° S
Cosmos 2333 Rocket 3.9 21:18:15 10° NNW 21:23:14 29° NE 21:28:13 10° E
Cosmos 2218 Rocket 4.1 21:18:46 10° N 21:25:14 82° E 21:30:50 14° SSE
USA 276 2.6 21:26:18 10° W 21:29:09 37° SSW 21:31:02 17° SE
SJ 16-02 2.3 21:27:21 10° NNW 21:31:36 41° ENE 21:35:23 12° SE
Cosmos 1867 4.3 21:27:10 10° NW 21:32:20 43° WSW 21:36:30 15° S
USA 267 3.7 21:28:39 10° ENE 21:34:42 39° SE 21:40:44 10° SSW
Cosmos 2082 Rocket 2.2 21:29:33 10° SSW 21:35:16 81° ESE 21:40:59 10° NNE
GP-B 3.3 21:35:16 10° N 21:39:43 74° W 21:43:34 13° S
ARIANE 5 R/B 4.0 21:35:57 10° SSW 21:39:56 32° W 21:43:56 10° NNW
Cosmos 1959 Rocket 4.5 21:34:30 10° NNW 21:40:38 83° W 21:45:49 15° S
Cosmos 2341 Rocket 4.4 21:35:02 10° NNW 21:41:15 60° W 21:47:01 12° S
SAR-Lupe-4 3.5 21:40:10 10° NNE 21:43:46 87° WNW 21:46:46 14° SSW
Cosmos 2360 Rocket 3.0 21:39:04 10° NNW 21:44:35 47° NE 21:50:03 10° ESE
Cosmos 1606 3.6 21:47:08 10° N 21:50:48 40° ENE 21:53:24 17° SE
Spot 4 3.9 21:48:33 18° SSE 21:52:10 82° ENE 21:57:00 10° NNW
Cosmos 2237 4.3 21:54:22 10° NNW 22:00:10 79° ENE 22:04:54 16° SE
Okean 1-7 Rocket 3.7 21:58:40 15° SSW 22:02:21 80° W 22:06:54 10° N
Cosmos 1892 3.7 22:02:08 10° SW 22:05:43 41° WNW 22:09:21 10° N
COSMOS 2428 4.3 22:05:02 10° NNW 22:10:06 31° NE 22:15:09 10° ESE
Cosmos 1758 Rocket 3.7 22:08:36 20° S 22:11:26 60° E 22:15:48 10° NNE
USA 234 3.3 22:04:57 10° SE 22:11:29 68° SSW 22:18:04 10° WNW
Cosmos 2181 Rocket 4.3 22:07:21 11° SSW 22:13:18 68° WNW 22:19:34 10° N
Cosmos 1633 2.4 22:12:09 23° S 22:14:11 76° E 22:17:39 10° NNE
Cosmos 1980 Rocket 3.9 22:12:25 10° NW 22:16:40 22° WSW 22:20:52 10° SSW
Cosmos 1821 Rocket 4.0 22:10:26 10° NNW 22:16:43 86° W 22:21:23 19° S
SL-16 R/B 2.4 22:11:43 10° NW 22:17:21 64° WSW 22:21:23 19° SSE
Cosmos 1812 Rocket 3.8 22:14:44 10° NNW 22:19:11 65° W 22:22:08 20° S
Cosmos 1992 Rocket 4.1 22:15:18 10° SSW 22:20:31 78° WNW 22:25:49 10° NNE
Cosmos 2219 Rocket 3.2 22:16:15 10° NNW 22:21:40 43° NE 22:27:04 10° ESE
SL-4 R/B 3.4 22:23:23 17° SE 22:23:23 17° SE 22:25:11 10° E
Cosmos 1932 4.5 22:16:27 10° SW 22:22:42 89° NW 22:29:07 10° NE
Cosmos-2242 3.2 22:24:19 10° NNW 22:28:32 64° W 22:31:12 22° S
ATLAS 5 CENTAUR R/B 1.3 22:29:32 10° SW 22:33:19 90° SSW 22:37:46 10° NE
Cosmos 1602 Rocket 3.8 22:32:11 18° SSW 22:35:22 65° WNW 22:39:42 10° N
ERS-2 2.9 22:32:38 10° NNE 22:36:00 37° E 22:37:40 23° SSE
Cosmos 1238 4.3 22:38:02 28° S 22:39:35 80° E 22:43:12 10° NNE
Nadezhda 3 Rocket 4.0 22:36:22 18° S 22:41:02 86° ESE 22:47:16 10° NNE
ALOS 2 3.0 22:39:48 21° S 22:42:32 55° W 22:46:52 10° NNW
BREEZE-M DEB (TANK) 4.3 22:46:02 10° W 22:49:43 52° S 23:04:13 10° ESE
Cosmos 972 Rocket 4.1 22:45:25 10° NNW 22:50:34 90° E 22:54:40 19° SSE
ADEOS Rocket 3.7 22:45:43 18° S 22:51:23 64° W 22:59:09 10° NNW
Cosmos 2322 Rocket 2.6 22:47:17 10° NW 22:52:45 49° WSW 22:56:24 20° S
Cosmos 1825 4.1 22:49:58 10° SW 22:53:05 24° WNW 22:56:12 10° NNW
USA 290 4.1 22:50:16 10° N 22:53:05 26° NE 22:55:54 10° ESE
Cosmos 1933 4.5 22:49:48 10° N 22:53:32 35° ENE 22:56:26 15° SE
PSLV R/B 4.1 22:55:25 10° NNE 23:00:07 55° E 23:03:01 22° S
ISS -1.4 23:01:42 11° ESE 23:01:42 11° ESE 23:02:08 10° ESE
Cosmos 1953 Rocket 3.6 22:58:43 23° S 23:01:25 72° E 23:05:50 10° NNE
SL-27 R/B 4.0 23:00:48 18° SE 23:01:53 21° ESE 23:04:28 10° NE
USA 276 4.4 23:02:31 10° WSW 23:02:50 11° WSW 23:02:50 11° WSW
Cosmos 2333 Rocket 2.2 23:02:24 10° NNW 23:08:12 84° WSW 23:12:51 16° SSE
SJ 16-02 2.6 23:06:10 10° NW 23:10:01 30° WSW 23:12:19 19° SSW
Cosmos 1825 Rocket 3.8 23:08:17 20° SSW 23:11:09 63° WNW 23:15:30 10° N
CENTAUR R/B 4.0 23:09:34 13° SE 23:12:54 20° ESE 23:17:41 10° ENE
Gbstr 26 Del rocket 3.8 23:11:09 21° SSW 23:13:31 37° SSE 23:18:23 10° E
COSMOS 2487 3.6 23:13:59 21° SE 23:14:58 25° ESE 23:17:34 10° NE
Cosmos 1898 Rocket 4.0 23:10:10 10° NNW 23:15:17 56° ENE 23:20:22 10° SE
Cosmos 1340 Rocket 2.7 23:13:04 24° SSW 23:15:22 84° WNW 23:19:23 10° NNE
Lacrosse 4 Rocket 4.4 23:13:24 10° NNW 23:15:48 15° NNE 23:18:12 10° ENE
H-2A R/B 4.4 23:13:41 10° N 23:17:40 43° WNW 23:20:55 14° SW
Cosmos 2151 4.2 23:14:58 17° SE 23:17:41 32° E 23:21:31 10° NNE
USA 267 3.2 23:11:39 10° ENE 23:18:15 87° SSE 23:24:49 10° WSW
Cosmos 2082 Rocket 4.1 23:15:04 10° W 23:20:00 29° NW 23:24:55 10° NNE
Cosmos 1937 Rocket 4.3 23:18:30 10° NNW 23:23:39 50° ENE 23:28:42 10° SE
Cosmos 1812 3.5 23:20:16 10° N 23:23:58 44° ENE 23:26:44 16° SE
Meteor 2-3 Rocket 4.1 23:20:57 19° SSE 23:24:51 53° E 23:30:16 10° NNE
Cosmos 2221 2.7 23:21:20 10° NNW 23:25:40 65° W 23:28:17 23° S
Cosmos 1606 4.5 23:23:10 10° NW 23:26:10 22° W 23:28:16 14° SW
Cosmos 1842 Rocket 3.6 23:23:52 10° NNW 23:28:23 80° W 23:31:14 22° S
Cosmos 2360 Rocket 2.8 23:23:15 10° NW 23:28:33 41° WSW 23:32:00 20° SSW
Cosmos 1934 Rocket 4.3 23:22:53 10° NNW 23:28:46 53° W 23:33:06 19° SSW
Cosmos 2058 3.7 23:26:08 18° SW 23:29:01 45° WNW 23:33:03 10° N
Nimbus 7 Rocket 4.4 23:26:07 10° NNE 23:32:05 90° E 23:36:36 19° SSW
Cosmos 2333 4.4 23:27:33 10° NW 23:33:13 58° WSW 23:37:20 19° S
Resurs 1-4 Rocket 4.0 23:29:33 10° NE 23:33:29 20° E 23:37:24 10° SE
Cosmos 1782 2.9 23:30:37 10° N 23:34:37 73° ENE 23:37:13 20° SSE
SL-19 R/B 4.4 23:37:33 21° SSE 23:40:12 86° WSW 23:44:44 10° NNW
CZ-2D R/B 3.8 23:38:08 10° NE 23:42:11 22° E 23:46:14 10° SE
COSMOS 2455 3.5 23:37:08 10° NW 23:43:05 56° NE 23:49:00 10° ESE
Cosmos 1833 4.2 23:39:57 18° SSW 23:44:14 87° ESE 23:49:53 10° NNE
NOSS 8 (A) 4.0 23:42:23 22° SW 23:44:17 82° SE 23:47:11 10° NE
Cosmos 44 3.1 23:41:21 20° SSW 23:44:30 70° SE 23:48:56 10° NE
Cosmos 1459 Rocket 4.3 23:46:44 10° N 23:52:47 64° ENE 23:58:33 11° SSE
Cosmos 2237 Rocket 3.0 23:47:56 10° NNW 23:53:32 53° NE 23:59:04 10° SE
